AB776 CYVO-CYHU

Flight info

Callsign AB776
Flight time 1h 8m
Altitude 27000
Route TAGET DCT TILUB DCT VIVIP DCT MAIRE
Aircraft PC12/L-SDFGRWY/S

Departure

Time 2026-04-29 19:17
Airport Val-d'Or Airport (CYVO)

Arrival

Time 2026-04-29 20:26
Airport Montréal / Saint-Hubert Metropolitan Airport (CYHU)
Time Latitude Longitude Altitude Speed Heading
2026-04-29 19:07 48.05351 -77.78674 1105 ft 0 kts 25°
2026-04-29 19:12 48.05352 -77.78674 1105 ft 0 kts 23°
2026-04-29 19:12 48.05343 -77.78598 1104 ft 11 kts 127°
2026-04-29 19:12 48.05328 -77.78568 1105 ft 12 kts 127°
2026-04-29 19:13 48.05321 -77.78342 1105 ft 16 kts 79°
2026-04-29 19:13 48.05247 -77.78248 1106 ft 17 kts 170°
2026-04-29 19:13 48.05124 -77.78212 1107 ft 19 kts 169°
2026-04-29 19:13 48.04985 -77.78173 1107 ft 20 kts 170°
2026-04-29 19:14 48.04859 -77.78137 1103 ft 19 kts 168°
2026-04-29 19:14 48.04727 -77.78097 1106 ft 20 kts 168°
2026-04-29 19:14 48.04582 -77.78062 1104 ft 22 kts 170°
2026-04-29 19:14 48.04424 -77.78018 1104 ft 23 kts 169°
2026-04-29 19:15 48.04262 -77.77968 1104 ft 24 kts 168°
2026-04-29 19:15 48.04118 -77.77925 1104 ft 19 kts 168°
2026-04-29 19:15 48.04026 -77.77847 1104 ft 12 kts 169°
2026-04-29 19:15 48.04024 -77.77899 1103 ft 9 kts 351°
2026-04-29 19:16 48.04049 -77.77905 1103 ft 0 kts 351°
2026-04-29 19:16 48.04055 -77.77907 1103 ft 5 kts 349°
2026-04-29 19:16 48.04229 -77.77955 1101 ft 51 kts 351°
2026-04-29 19:16 48.04706 -77.78104 1167 ft 83 kts 349°
2026-04-29 19:17 48.05349 -77.78253 1328 ft 103 kts 350°
2026-04-29 19:17 48.06100 -77.78430 1623 ft 115 kts 351°
2026-04-29 19:17 48.06954 -77.78640 1902 ft 138 kts 351°
2026-04-29 19:17 48.07955 -77.78867 2391 ft 147 kts 352°
2026-04-29 19:18 48.08960 -77.79112 3007 ft 145 kts 351°
2026-04-29 19:18 48.09636 -77.79239 3380 ft 147 kts
2026-04-29 19:18 48.10550 -77.78100 4068 ft 157 kts 71°
2026-04-29 19:18 48.10362 -77.76502 4584 ft 166 kts 125°
2026-04-29 19:19 48.09389 -77.75609 5055 ft 168 kts 154°
2026-04-29 19:19 48.08458 -77.74537 5503 ft 170 kts 138°
2026-04-29 19:19 48.07596 -77.73319 6006 ft 171 kts 136°
2026-04-29 19:19 48.06798 -77.71985 6510 ft 173 kts 133°
2026-04-29 19:20 48.06009 -77.70628 6995 ft 173 kts 135°
2026-04-29 19:20 48.05205 -77.69288 7489 ft 174 kts 136°
2026-04-29 19:20 48.04396 -77.67950 7992 ft 174 kts 136°
2026-04-29 19:20 48.03583 -77.66603 8471 ft 175 kts 136°
2026-04-29 19:21 48.02764 -77.65246 8952 ft 176 kts 136°
2026-04-29 19:21 48.01941 -77.63881 9439 ft 177 kts 137°
2026-04-29 19:21 48.01393 -77.62972 9765 ft 178 kts 137°
2026-04-29 19:21 48.00281 -77.61130 10363 ft 179 kts 137°
2026-04-29 19:22 47.99729 -77.60216 10678 ft 179 kts 138°
2026-04-29 19:22 47.98898 -77.58840 11158 ft 178 kts 139°
2026-04-29 19:22 47.98069 -77.57470 11637 ft 178 kts 139°
2026-04-29 19:22 47.97241 -77.56101 12116 ft 177 kts 140°
2026-04-29 19:23 47.96414 -77.54734 12596 ft 177 kts 140°
2026-04-29 19:23 47.95586 -77.53367 13058 ft 177 kts 141°
2026-04-29 19:23 47.94759 -77.52002 13528 ft 177 kts 141°
2026-04-29 19:23 47.93933 -77.50639 13966 ft 177 kts 142°
2026-04-29 19:24 47.93104 -77.49273 14358 ft 178 kts 142°
2026-04-29 19:24 47.92273 -77.47904 14750 ft 178 kts 142°
2026-04-29 19:24 47.91439 -77.46530 15139 ft 179 kts 142°
2026-04-29 19:24 47.90602 -77.45151 15531 ft 180 kts 142°
2026-04-29 19:25 47.89763 -77.43772 15914 ft 180 kts 142°
2026-04-29 19:25 47.88919 -77.42383 16298 ft 181 kts 142°
2026-04-29 19:25 47.88071 -77.40989 16679 ft 182 kts 142°
2026-04-29 19:25 47.87219 -77.39589 17065 ft 183 kts 142°
2026-04-29 19:26 47.86362 -77.38183 17446 ft 184 kts 143°
2026-04-29 19:26 47.85502 -77.36770 17841 ft 185 kts 143°
2026-04-29 19:26 47.84637 -77.35352 18242 ft 185 kts 143°
2026-04-29 19:26 47.83768 -77.33927 18582 ft 187 kts 143°
2026-04-29 19:27 47.82891 -77.32491 18910 ft 188 kts 143°
2026-04-29 19:27 47.82008 -77.31045 19233 ft 189 kts 143°
2026-04-29 19:27 47.81119 -77.29590 19559 ft 191 kts 143°
2026-04-29 19:27 47.80221 -77.28122 19880 ft 192 kts 143°
2026-04-29 19:28 47.79317 -77.26643 20204 ft 194 kts 143°
2026-04-29 19:28 47.78406 -77.25155 20508 ft 195 kts 143°
2026-04-29 19:28 47.77490 -77.23659 20815 ft 197 kts 144°
2026-04-29 19:28 47.76566 -77.22150 21109 ft 198 kts 144°
2026-04-29 19:29 47.75635 -77.20632 21412 ft 199 kts 144°
2026-04-29 19:29 47.74699 -77.19105 21716 ft 201 kts 144°
2026-04-29 19:29 47.73755 -77.17568 22021 ft 202 kts 144°
2026-04-29 19:29 47.72805 -77.16021 22323 ft 203 kts 144°
2026-04-29 19:30 47.71849 -77.14464 22638 ft 205 kts 144°
2026-04-29 19:30 47.70890 -77.12903 22993 ft 203 kts 144°
2026-04-29 19:30 47.69958 -77.11382 23368 ft 202 kts 145°
2026-04-29 19:30 47.69005 -77.09838 23662 ft 203 kts 145°
2026-04-29 19:31 47.68048 -77.08285 23944 ft 204 kts 145°
2026-04-29 19:31 47.67087 -77.06725 24217 ft 205 kts 146°
2026-04-29 19:31 47.66121 -77.05159 24499 ft 206 kts 146°
2026-04-29 19:31 47.65151 -77.03587 24782 ft 207 kts 146°
2026-04-29 19:32 47.64177 -77.02009 25063 ft 208 kts 146°
2026-04-29 19:32 47.63198 -77.00424 25342 ft 209 kts 146°
2026-04-29 19:32 47.62216 -76.98835 25627 ft 210 kts 146°
2026-04-29 19:32 47.61228 -76.97237 25905 ft 211 kts 146°
2026-04-29 19:33 47.60235 -76.95632 26184 ft 212 kts 146°
2026-04-29 19:33 47.59237 -76.94021 26463 ft 213 kts 146°
2026-04-29 19:33 47.58233 -76.92401 26731 ft 214 kts 146°
2026-04-29 19:33 47.57224 -76.90773 26960 ft 217 kts 146°
2026-04-29 19:34 47.56170 -76.89090 26965 ft 229 kts 146°
2026-04-29 19:34 47.55069 -76.87322 26964 ft 238 kts 145°
2026-04-29 19:34 47.53934 -76.85489 26967 ft 245 kts 144°
2026-04-29 19:34 47.52767 -76.83606 26966 ft 250 kts 144°
2026-04-29 19:35 47.51589 -76.81705 26965 ft 251 kts 144°
2026-04-29 19:35 47.50404 -76.79799 26961 ft 252 kts 144°
2026-04-29 19:35 47.49212 -76.77887 26957 ft 253 kts 144°
2026-04-29 19:35 47.48017 -76.75970 26955 ft 254 kts 144°
2026-04-29 19:36 47.46820 -76.74051 26955 ft 254 kts 144°
2026-04-29 19:36 47.45622 -76.72131 26955 ft 254 kts 144°
2026-04-29 19:36 47.44425 -76.70214 26955 ft 254 kts 145°
2026-04-29 19:36 47.43225 -76.68295 26953 ft 254 kts 145°
2026-04-29 19:37 47.42023 -76.66374 26949 ft 254 kts 145°
2026-04-29 19:37 47.41231 -76.65107 26951 ft 254 kts 145°
2026-04-29 19:37 47.39626 -76.62546 26949 ft 254 kts 145°
2026-04-29 19:37 47.38426 -76.60632 26949 ft 254 kts 145°
2026-04-29 19:38 47.37226 -76.58719 26949 ft 254 kts 145°
2026-04-29 19:38 47.36026 -76.56807 26946 ft 254 kts 145°
2026-04-29 19:38 47.34826 -76.54898 26946 ft 254 kts 146°
2026-04-29 19:38 47.33629 -76.52993 26945 ft 253 kts 146°
2026-04-29 19:39 47.32432 -76.51091 26945 ft 253 kts 146°
2026-04-29 19:39 47.31236 -76.49191 26944 ft 253 kts 146°
2026-04-29 19:39 47.30039 -76.47293 26944 ft 253 kts 146°
2026-04-29 19:39 47.28842 -76.45394 26942 ft 253 kts 146°
2026-04-29 19:40 47.27647 -76.43500 26943 ft 253 kts 146°
2026-04-29 19:40 47.26465 -76.41628 26941 ft 253 kts 146°
2026-04-29 19:40 47.25253 -76.39710 26939 ft 252 kts 146°
2026-04-29 19:40 47.24059 -76.37822 26939 ft 252 kts 146°
2026-04-29 19:41 47.22862 -76.35931 26939 ft 252 kts 146°
2026-04-29 19:41 47.21680 -76.34065 26935 ft 253 kts 146°
2026-04-29 19:41 47.20482 -76.32174 26936 ft 253 kts 146°
2026-04-29 19:41 47.19284 -76.30283 26938 ft 253 kts 146°
2026-04-29 19:42 47.18084 -76.28394 26934 ft 253 kts 146°
2026-04-29 19:42 47.17273 -76.27116 26938 ft 253 kts 146°
2026-04-29 19:42 47.15687 -76.24619 26936 ft 252 kts 146°
2026-04-29 19:42 47.14488 -76.22734 26933 ft 253 kts 146°
2026-04-29 19:43 47.13286 -76.20847 26929 ft 253 kts 146°
2026-04-29 19:43 47.12086 -76.18961 26930 ft 252 kts 146°
2026-04-29 19:43 47.10887 -76.17080 26930 ft 252 kts 146°
2026-04-29 19:43 47.09687 -76.15199 26928 ft 253 kts 146°
2026-04-29 19:44 47.08484 -76.13315 26928 ft 253 kts 146°
2026-04-29 19:44 47.07281 -76.11430 26931 ft 253 kts 146°
2026-04-29 19:44 47.06075 -76.09544 26930 ft 253 kts 146°
2026-04-29 19:44 47.04869 -76.07658 26932 ft 254 kts 146°
2026-04-29 19:45 47.03664 -76.05775 26927 ft 254 kts 146°
2026-04-29 19:45 47.02455 -76.03887 26926 ft 254 kts 146°
2026-04-29 19:45 47.01245 -76.01999 26926 ft 254 kts 146°
2026-04-29 19:45 47.00036 -76.00113 26921 ft 254 kts 146°
2026-04-29 19:46 46.98825 -75.98227 26922 ft 254 kts 146°
2026-04-29 19:46 46.97612 -75.96340 26918 ft 255 kts 146°
2026-04-29 19:46 46.96399 -75.94451 26918 ft 255 kts 146°
2026-04-29 19:46 46.95187 -75.92567 26920 ft 255 kts 146°
2026-04-29 19:47 46.93972 -75.90679 26919 ft 255 kts 146°
2026-04-29 19:47 46.92757 -75.88793 26919 ft 255 kts 146°
2026-04-29 19:47 46.91540 -75.86904 26916 ft 255 kts 146°
2026-04-29 19:47 46.90322 -75.85017 26917 ft 255 kts 146°
2026-04-29 19:48 46.89102 -75.83128 26916 ft 256 kts 146°
2026-04-29 19:48 46.88306 -75.81859 26918 ft 259 kts 141°
2026-04-29 19:48 46.86861 -75.79016 26915 ft 261 kts 139°
2026-04-29 19:48 46.85771 -75.76899 26914 ft 261 kts 139°
2026-04-29 19:49 46.84677 -75.74786 26913 ft 261 kts 139°
2026-04-29 19:49 46.83586 -75.72666 26912 ft 261 kts 139°
2026-04-29 19:49 46.82509 -75.70572 26916 ft 261 kts 139°
2026-04-29 19:49 46.81415 -75.68447 26914 ft 262 kts 139°
2026-04-29 19:50 46.80317 -75.66320 26910 ft 262 kts 139°
2026-04-29 19:50 46.79217 -75.64189 26911 ft 263 kts 139°
2026-04-29 19:50 46.78117 -75.62058 26909 ft 263 kts 139°
2026-04-29 19:50 46.77015 -75.59927 26911 ft 263 kts 139°
2026-04-29 19:51 46.75911 -75.57794 26908 ft 263 kts 139°
2026-04-29 19:51 46.74807 -75.55661 26909 ft 264 kts 139°
2026-04-29 19:51 46.73701 -75.53525 26907 ft 264 kts 139°
2026-04-29 19:51 46.72596 -75.51395 26904 ft 264 kts 139°
2026-04-29 19:52 46.71489 -75.49261 26905 ft 264 kts 139°
2026-04-29 19:52 46.70379 -75.47123 26905 ft 265 kts 139°
2026-04-29 19:52 46.69267 -75.44985 26908 ft 265 kts 139°
2026-04-29 19:52 46.68154 -75.42845 26905 ft 265 kts 139°
2026-04-29 19:53 46.67038 -75.40701 26905 ft 266 kts 139°
2026-04-29 19:53 46.65921 -75.38556 26899 ft 267 kts 139°
2026-04-29 19:53 46.64799 -75.36404 26903 ft 267 kts 139°
2026-04-29 19:53 46.63675 -75.34250 26901 ft 268 kts 139°
2026-04-29 19:54 46.61420 -75.29931 26893 ft 268 kts 138°
2026-04-29 19:54 46.60291 -75.27772 26895 ft 268 kts 138°
2026-04-29 19:54 46.59161 -75.25614 26895 ft 268 kts 138°
2026-04-29 19:55 46.58032 -75.23457 26892 ft 268 kts 138°
2026-04-29 19:55 46.56902 -75.21301 26895 ft 268 kts 138°
2026-04-29 19:55 46.55768 -75.19141 26895 ft 269 kts 138°
2026-04-29 19:55 46.54632 -75.16977 26891 ft 269 kts 138°
2026-04-29 19:56 46.53498 -75.14817 26888 ft 269 kts 138°
2026-04-29 19:56 46.52360 -75.12653 26891 ft 269 kts 138°
2026-04-29 19:56 46.51221 -75.10489 26891 ft 270 kts 138°
2026-04-29 19:56 46.50081 -75.08324 26889 ft 270 kts 138°
2026-04-29 19:57 46.48939 -75.06157 26884 ft 271 kts 138°
2026-04-29 19:57 46.48183 -75.04724 26888 ft 270 kts 138°
2026-04-29 19:57 46.46652 -75.01823 26882 ft 271 kts 138°
2026-04-29 19:57 46.45507 -74.99655 26884 ft 271 kts 138°
2026-04-29 19:58 46.44360 -74.97485 26884 ft 271 kts 138°
2026-04-29 19:58 46.43212 -74.95315 26886 ft 271 kts 138°
2026-04-29 19:58 46.42063 -74.93145 26884 ft 271 kts 138°
2026-04-29 19:58 46.40912 -74.90973 26887 ft 272 kts 138°
2026-04-29 19:59 46.39759 -74.88799 26886 ft 272 kts 138°
2026-04-29 19:59 46.38605 -74.86625 26884 ft 272 kts 138°
2026-04-29 19:59 46.37457 -74.84462 26887 ft 271 kts 138°
2026-04-29 19:59 46.36305 -74.82295 26882 ft 272 kts 138°
2026-04-29 20:00 46.35154 -74.80131 26888 ft 271 kts 138°
2026-04-29 20:00 46.34003 -74.77970 26880 ft 271 kts 138°
2026-04-29 20:00 46.32851 -74.75808 26885 ft 272 kts 138°
2026-04-29 20:00 46.31695 -74.73642 26883 ft 272 kts 138°
2026-04-29 20:01 46.30540 -74.71475 26883 ft 272 kts 138°
2026-04-29 20:01 46.29381 -74.69306 26886 ft 273 kts 138°
2026-04-29 20:01 46.28223 -74.67138 26883 ft 272 kts 137°
2026-04-29 20:01 46.27063 -74.64970 26885 ft 273 kts 137°
2026-04-29 20:02 46.25901 -74.62800 26882 ft 273 kts 137°
2026-04-29 20:02 46.24737 -74.60627 26889 ft 274 kts 137°
2026-04-29 20:02 46.23572 -74.58453 26880 ft 274 kts 137°
2026-04-29 20:02 46.23194 -74.57749 26882 ft 274 kts 137°
2026-04-29 20:03 46.21237 -74.54102 26884 ft 274 kts 137°
2026-04-29 20:03 46.20071 -74.51930 26881 ft 273 kts 137°
2026-04-29 20:03 46.18904 -74.49762 26889 ft 273 kts 137°
2026-04-29 20:03 46.17737 -74.47595 26888 ft 274 kts 137°
2026-04-29 20:04 46.16569 -74.45426 26890 ft 274 kts 137°
2026-04-29 20:04 46.15404 -74.43263 26886 ft 273 kts 137°
2026-04-29 20:04 46.14236 -74.41099 26889 ft 273 kts 137°
2026-04-29 20:04 46.13068 -74.38935 26893 ft 273 kts 137°
2026-04-29 20:05 46.11915 -74.36800 26892 ft 274 kts 137°
2026-04-29 20:05 46.10744 -74.34634 26894 ft 274 kts 137°
2026-04-29 20:05 46.09558 -74.32444 26893 ft 274 kts 137°
2026-04-29 20:05 46.08383 -74.30275 26893 ft 275 kts 137°
2026-04-29 20:06 46.07223 -74.28133 26891 ft 275 kts 137°
2026-04-29 20:06 46.06047 -74.25964 26885 ft 275 kts 137°
2026-04-29 20:06 46.04835 -74.23745 26435 ft 288 kts 136°
2026-04-29 20:06 46.03582 -74.21445 25977 ft 295 kts 136°
2026-04-29 20:07 46.02324 -74.19119 25527 ft 292 kts 135°
2026-04-29 20:07 46.01084 -74.16831 25093 ft 288 kts 135°
2026-04-29 20:07 45.99854 -74.14575 24662 ft 285 kts 135°
2026-04-29 20:07 45.98638 -74.12348 24231 ft 282 kts 135°
2026-04-29 20:08 45.97427 -74.10129 23814 ft 282 kts 135°
2026-04-29 20:08 45.97017 -74.09377 23669 ft 282 kts 135°
2026-04-29 20:08 45.95422 -74.06455 23048 ft 280 kts 134°
2026-04-29 20:08 45.94223 -74.04260 22562 ft 279 kts 134°
2026-04-29 20:09 45.93028 -74.02076 22074 ft 277 kts 135°
2026-04-29 20:09 45.91840 -73.99906 21602 ft 276 kts 135°
2026-04-29 20:09 45.90658 -73.97748 21139 ft 274 kts 135°
2026-04-29 20:09 45.89481 -73.95603 20680 ft 273 kts 135°
2026-04-29 20:10 45.88311 -73.93470 20231 ft 272 kts 135°
2026-04-29 20:10 45.87139 -73.91337 19782 ft 274 kts 135°
2026-04-29 20:10 45.85953 -73.89180 19339 ft 277 kts 135°
2026-04-29 20:10 45.84758 -73.87011 18885 ft 278 kts 135°
2026-04-29 20:11 45.83555 -73.84838 18421 ft 278 kts 135°
2026-04-29 20:11 45.82353 -73.82662 17945 ft 278 kts 135°
2026-04-29 20:11 45.81151 -73.80483 17437 ft 279 kts 135°
2026-04-29 20:11 45.79945 -73.78301 16936 ft 279 kts 135°
2026-04-29 20:12 45.78738 -73.76124 16443 ft 278 kts 135°
2026-04-29 20:12 45.77616 -73.74102 15991 ft 277 kts 135°
2026-04-29 20:12 45.76572 -73.72224 15571 ft 275 kts 135°
2026-04-29 20:12 45.75386 -73.70090 15103 ft 273 kts 135°
2026-04-29 20:13 45.74203 -73.67965 14600 ft 272 kts 135°
2026-04-29 20:13 45.73029 -73.65859 14085 ft 269 kts 135°
2026-04-29 20:13 45.71863 -73.63771 13583 ft 268 kts 135°
2026-04-29 20:13 45.70695 -73.61691 13019 ft 267 kts 135°
2026-04-29 20:14 45.69529 -73.59628 12472 ft 267 kts 135°
2026-04-29 20:14 45.68357 -73.57567 11930 ft 267 kts 135°
2026-04-29 20:14 45.67179 -73.55509 11398 ft 267 kts 135°
2026-04-29 20:14 45.65999 -73.53465 10876 ft 267 kts 135°
2026-04-29 20:15 45.64814 -73.51426 10360 ft 266 kts 135°
2026-04-29 20:15 45.63627 -73.49402 9853 ft 264 kts 135°
2026-04-29 20:15 45.62296 -73.47685 9300 ft 256 kts 150°
2026-04-29 20:15 45.60773 -73.46392 8745 ft 253 kts 155°
2026-04-29 20:16 45.59234 -73.45210 8211 ft 249 kts 155°
2026-04-29 20:16 45.57709 -73.44070 7678 ft 246 kts 156°
2026-04-29 20:16 45.56199 -73.42962 7158 ft 243 kts 156°
2026-04-29 20:16 45.54699 -73.41882 6644 ft 240 kts 155°
2026-04-29 20:17 45.53208 -73.40828 6125 ft 238 kts 156°
2026-04-29 20:17 45.51733 -73.39800 5607 ft 235 kts 156°
2026-04-29 20:17 45.50275 -73.38805 5175 ft 228 kts 156°
2026-04-29 20:17 45.48748 -73.38470 4740 ft 223 kts 184°
2026-04-29 20:18 45.47274 -73.39135 4302 ft 225 kts 208°
2026-04-29 20:18 45.45956 -73.40342 3866 ft 225 kts 212°
2026-04-29 20:18 45.44656 -73.41592 3440 ft 226 kts 212°
2026-04-29 20:18 45.43342 -73.42839 3046 ft 227 kts 211°
2026-04-29 20:19 45.42059 -73.44045 2991 ft 215 kts 211°
2026-04-29 20:19 45.40844 -73.45186 2995 ft 204 kts 211°
2026-04-29 20:19 45.39683 -73.46276 2981 ft 197 kts 211°
2026-04-29 20:19 45.38540 -73.47346 2991 ft 202 kts 210°
2026-04-29 20:20 45.37342 -73.48470 2992 ft 205 kts 210°
2026-04-29 20:20 45.36217 -73.49697 2986 ft 210 kts 226°
2026-04-29 20:20 45.35581 -73.51611 2989 ft 218 kts 256°
2026-04-29 20:20 45.35715 -73.53763 2986 ft 224 kts 288°
2026-04-29 20:21 45.36594 -73.55550 2986 ft 225 kts 314°
2026-04-29 20:21 45.37758 -73.57043 2979 ft 224 kts 323°
2026-04-29 20:21 45.39183 -73.57865 2977 ft 222 kts 352°
2026-04-29 20:21 45.40702 -73.57724 2971 ft 218 kts 19°
2026-04-29 20:22 45.41989 -73.56707 2976 ft 209 kts 44°
2026-04-29 20:22 45.42978 -73.55240 2981 ft 204 kts 50°
2026-04-29 20:22 45.43921 -73.53781 2643 ft 194 kts 50°
2026-04-29 20:22 45.44819 -73.52412 2286 ft 185 kts 50°
2026-04-29 20:23 45.45662 -73.51139 1920 ft 166 kts 49°
2026-04-29 20:23 45.46411 -73.50006 1557 ft 150 kts 50°
2026-04-29 20:23 45.47112 -73.48944 1350 ft 144 kts 50°
2026-04-29 20:23 45.47763 -73.47956 1151 ft 131 kts 51°
2026-04-29 20:24 45.48348 -73.47069 989 ft 111 kts 50°
2026-04-29 20:24 45.48844 -73.46315 832 ft 101 kts 50°
2026-04-29 20:24 45.49321 -73.45590 693 ft 101 kts 49°
2026-04-29 20:24 45.49808 -73.44852 576 ft 103 kts 48°
2026-04-29 20:25 45.50292 -73.44098 403 ft 103 kts 47°
2026-04-29 20:25 45.50783 -73.43347 260 ft 102 kts 45°
2026-04-29 20:25 45.51253 -73.42637 127 ft 93 kts 46°
2026-04-29 20:25 45.51652 -73.42036 91 ft 71 kts 46°
2026-04-29 20:26 45.51871 -73.41698 95 ft 31 kts 47°
2026-04-29 20:26 45.52013 -73.41488 93 ft 27 kts 45°
2026-04-29 20:26 45.52136 -73.41299 92 ft 25 kts 47°
2026-04-29 20:26 45.52241 -73.41210 90 ft 13 kts 337°
2026-04-29 20:27 45.52277 -73.41304 90 ft 13 kts 233°
2026-04-29 20:27 45.52236 -73.41367 89 ft 14 kts 227°
2026-04-29 20:27 45.52146 -73.41504 90 ft 13 kts 226°
2026-04-29 20:27 45.52088 -73.41599 92 ft 13 kts 242°
2026-04-29 20:28 45.52024 -73.41690 94 ft 14 kts 229°
2026-04-29 20:28 45.51952 -73.41798 94 ft 16 kts 226°
2026-04-29 20:28 45.51875 -73.41919 93 ft 17 kts 226°
2026-04-29 20:28 45.51795 -73.42039 91 ft 15 kts 227°
2026-04-29 20:29 45.51721 -73.42150 90 ft 17 kts 229°
2026-04-29 20:29 45.51720 -73.42244 89 ft 13 kts 348°
2026-04-29 20:29 45.51816 -73.42274 90 ft 15 kts 347°
2026-04-29 20:29 45.51920 -73.42307 92 ft 14 kts 347°
2026-04-29 20:30 45.51960 -73.42355 93 ft 7 kts 269°
2026-04-29 20:30 45.51975 -73.42377 96 ft 0 kts 358°